Weather History for Champaign, IL

Change the Weather History Date:

Wednesday, June 12, 2013

  Actual Average Record
Temperature  
Mean Temperature 84 °F 71 °F  
Max Temperature 97 °F 83 °F 97 °F (2013)
Min Temperature 70 °F 60 °F 51 °F (2006)
Degree Days  
Heating Degree Days 0 1  
Month to date heating degree days 13 14  
Since 1 June heating degree days 13 14  
Since 1 July heating degree days 5651 5820  
Cooling Degree Days 19 7  
Month to date cooling degree days 59 72  
Year to date cooling degree days 191 164  
Since 1 June cooling degree days 59 72  
Growing Degree Days 33 (Base 50)    
Moisture  
Dew Point 68 °F    
Average Humidity 68    
Maximum Humidity 97    
Minimum Humidity 38    
Precipitation  
Precipitation T in 0.14 in 0.80 in (1997)
Month to date precipitation 0.47 1.92  
Year to date precipitation 16.15 17.08  
Sea Level Pressure  
Sea Level Pressure 29.79 in    
Wind  
Wind Speed 15 mph (SW)    
Max Wind Speed 29 mph    
Max Gust Speed 36 mph    
Visibility 10 miles    
Events      
T = Trace of Precipitation, MM = Missing Value Source: NWS Daily Summary

Daily Weather History Graph

Daily Weather History Graph

Search for Another Location

Airport:

Trip Planner

Search our weather history database for the weather conditions in past years. The results will help you decide how hot, cold, wet, or windy it might be!

Date:

Astronomy

Jun. 12, 2013 Rise Set
Actual Time 5:23 AM CDT 8:22 PM CDT
Civil Twilight 4:50 AM CDT 8:55 PM CDT
Nautical Twilight 4:09 AM CDT 9:37 PM CDT
Astronomical Twilight 3:21 AM CDT 10:25 PM CDT
Moon 9:02 AM CDT (6/12) 10:58 PM CDT (6/12)
Length of Visible Light 16h 04m
Length of Day
14h 59m
Waxing Crescent, 14% of the Moon is Illuminated
Jun 12
Waxing Crescent
Jun 16
First Quarter
Jun 23
Full
Jun 29
Last Quarter
Jul 8
New

Hourly Weather History & Observations

Time (CDT) Temp. Heat Index Dew Point Humidity Pressure Visibility Wind Dir Wind Speed Gust Speed Precip Events Conditions
12:53 AM 75.9 °F - 66.9 °F 74% 29.86 in 10.0 mi WSW 5.8 mph - N/A   Clear
1:49 AM 75.2 °F - 68.0 °F 78% 29.87 in 10.0 mi WSW 6.9 mph - N/A   Partly Cloudy
1:53 AM 75.0 °F - 68.0 °F 79% 29.86 in 10.0 mi WSW 6.9 mph - N/A   Clear
2:53 AM 72.0 °F - 68.0 °F 87% 29.86 in 10.0 mi WSW 4.6 mph - N/A   Clear
3:53 AM 72.0 °F - 68.0 °F 87% 29.88 in 10.0 mi West 6.9 mph - N/A   Clear
4:53 AM 71.1 °F - 68.0 °F 90% 29.88 in 10.0 mi WSW 4.6 mph - N/A   Clear
5:53 AM 70.0 °F - 68.0 °F 93% 29.88 in 9.0 mi SW 5.8 mph - N/A   Clear
6:53 AM 77.0 °F - 70.0 °F 79% 29.90 in 10.0 mi WSW 11.5 mph - N/A   Clear
7:53 AM 79.0 °F - 70.0 °F 74% 29.90 in 10.0 mi WSW 9.2 mph - N/A   Clear
8:53 AM 82.9 °F 87.0 °F 70.0 °F 65% 29.91 in 10.0 mi WSW 10.4 mph - N/A   Clear
9:53 AM 84.9 °F 88.8 °F 69.1 °F 59% 29.89 in 10.0 mi West 13.8 mph - N/A   Clear
10:53 AM 87.1 °F 90.6 °F 68.0 °F 53% 29.88 in 10.0 mi West 11.5 mph - N/A   Clear
11:53 AM 89.1 °F 92.9 °F 68.0 °F 50% 29.84 in 10.0 mi SW 5.8 mph - N/A   Clear
12:53 PM 91.0 °F 95.2 °F 68.0 °F 47% 29.78 in 10.0 mi South 18.4 mph 24.2 mph N/A   Clear
1:53 PM 93.9 °F 100.3 °F 70.0 °F 46% 29.76 in 10.0 mi SSW 18.4 mph 29.9 mph N/A   Clear
2:53 PM 96.1 °F 99.3 °F 66.0 °F 37% 29.76 in 10.0 mi SSW 21.9 mph 29.9 mph N/A   Clear
3:53 PM 96.1 °F 99.3 °F 66.0 °F 37% 29.75 in 10.0 mi SW 21.9 mph 31.1 mph N/A   Partly Cloudy
4:53 PM 93.9 °F 98.6 °F 68.0 °F 43% 29.72 in 10.0 mi SSW 23.0 mph 32.2 mph N/A   Partly Cloudy
5:53 PM 93.9 °F 99.1 °F 69.1 °F 44% 29.68 in 10.0 mi SSW 20.7 mph 33.4 mph N/A   Scattered Clouds
6:53 PM 93.0 °F 97.9 °F 69.1 °F 45% 29.67 in 10.0 mi SW 23.0 mph 28.8 mph N/A   Mostly Cloudy
7:53 PM 91.0 °F 95.2 °F 68.0 °F 47% 29.63 in 10.0 mi SW 24.2 mph 33.4 mph N/A   Scattered Clouds
8:53 PM 89.1 °F 93.7 °F 69.1 °F 52% 29.64 in 10.0 mi SW 20.7 mph 28.8 mph N/A   Overcast
9:53 PM 88.0 °F 92.1 °F 69.1 °F 53% 29.65 in 10.0 mi WSW 19.6 mph 28.8 mph 0.00 in   Clear
10:53 PM 86.0 °F 90.7 °F 70.0 °F 59% 29.65 in 10.0 mi WSW 17.3 mph 23.0 mph N/A   Mostly Cloudy
11:53 PM 84.0 °F 88.4 °F 70.0 °F 63% 29.66 in 10.0 mi WSW 13.8 mph - N/A   Partly Cloudy